Flag for Germany Weather past 2 weeks in Zerbst/Anhalt, Saxony-Anhalt, Germany

Now
53 °F

Fog.


Feels Like: 53 °F
Forecast: 50 / 66 °F
Wind: 2 mph from Southwest

Location: Magdeburg

Current Time: Apr 26, 2015 at 1:44:13 AM

Latest Report: Apr 26, 2015 at 1:00 AM


Visibility: 4 mi

Pressure: 29.78 "Hg

Humidity: 93%

Dew point: 51 °F

Location of Zerbst/AnhaltLocation

Historic Weather in Zerbst/Anhalt — Graph

°F

Zerbst/Anhalt temperature yesterday

Maximum temperature yesterday: 71 °F (at 2:00 PM)
Minimum temperature yesterday: 46 °F (at 6:00 AM)
Average temperature yesterday: 59 °F

Past Weeks' High & Low Weather Summary

 TemperatureHumidityPressure
High74 °F (Apr 15, 4:00 PM)95% (Apr 18, 7:00 AM)30.43 "Hg (Apr 18, 7:00 AM)
Low32 °F (Apr 18, 7:00 AM)23% (Apr 12, 4:00 PM)29.73 "Hg (Apr 25, 6:00 PM)
Average52 °F61%30.14 "Hg
* Reported Midnight between Apr 10 and Apr 11 — Midnight between Apr 25 and Apr 26, Zerbst/Anhalt, Weather by CustomWeather, © 2015

Note: Actual official high and low records may vary slightly from our data, if they occured in-between our weather recording intervals... More about our weather records

Advertising

Zerbst/Anhalt weather history for previous 24 hours

 ConditionsComfort  
Time TempWeatherWind HumidityBarometerVisibility
12:00 AM
Sun, Apr 26
53 °FOvercast.2 mph93%29.78 "Hg4 mi
10:00 PM
Sat, Apr 25
54 °FDrizzle. Overcast.1 mph92%29.77 "Hg4 mi
9:00 PM55 °FLight rain. Overcast.1 mph87%29.76 "Hg7 mi
8:00 PM57 °FOvercast.1 mph79%29.75 "Hg19 mi
7:00 PM60 °FOvercast.6 mph69%29.75 "Hg22 mi
6:00 PM62 °FOvercast.2 mph65%29.73 "Hg14 mi
4:00 PM65 °FLight rain. Overcast.6 mph46%29.74 "Hg19 mi
3:00 PM68 °FOvercast.7 mph36%29.75 "Hg25 mi
2:00 PM71 °FOvercast.7 mph28%29.74 "Hg25 mi
1:00 PM71 °FOvercast.7 mph30%29.75 "Hg25 mi
12:00 PM70 °FOvercast.3 mph39%29.76 "Hg22 mi
10:00 AM62 °FOvercast.1 mph52%29.79 "Hg12 mi
9:00 AM57 °FOvercast.2 mph64%29.79 "Hg11 mi
8:00 AM51 °FPartly sunny.2 mph68%29.79 "Hg12 mi
7:00 AM47 °FScattered clouds.2 mph70%29.80 "Hg19 mi
6:00 AM46 °FPartly sunny.2 mph72%29.80 "Hg25 mi
3:00 AM54 °FClear.2 mph51%29.81 "Hg22 mi
1:00 AM53 °FPassing clouds.3 mph57%29.83 "Hg17 mi
Weather by CustomWeather, © 2015

See weather overviewHow to use our weather pages